Location: Wildlife_Club
(35.6000°N, 81.4330°W)
Time: 12:21:51
(UTC-04:00)

A-11 Canister half - Pass Details

Date: 25 June 2019
Orbit: 1514 x 1685 km, 47.2° (Epoch: 22 July)

Event Time Altitude Azimuth Distance (km) Brightness Sun altitude
Rises 08:05:23 0° 181° (S) 4,924 11.5 20.6°
Reaches altitude 10° 08:09:51 10° 164° (SSE) 3,935 11.2 21.4°
Maximum altitude 08:16:15 19° 124° (SE) 3,255 11.5 22.7°
Drops below altitude 10° 08:22:35 10° 84° (E) 3,898 13.1 24.0°
Sets 08:26:54 0° 68° (ENE) 4,862 13.0 24.8°
